When you browse on this site, cookies collect data to enhance your experience and personalize the content and advertising you see.
Visit our Privacy Policy to learn more. By continuing to use the site, you agree to this use of cookies and data.
  • Em Portugal
  • Lista de países
  • Para 7 dias
  • Temperatura da água
  • Mapa do tempo
  • Widgets de tempo
  • user-avatar
    Iniciar Sessão

    Previsão horária em Kozani

    Hoje, 26 Maio, Terça-feira

    Tempo Temperatura Precipitação Vento Pressão Humidade
    00:00 +10°C° 0.2 mm 1 m/s 706 mmHg 84%
    01:00 +9°C° 0 mm 1 m/s 706 mmHg 84%
    02:00 +9°C° 0 mm 1 m/s 705 mmHg 84%
    03:00 +9°C° 0 mm 1 m/s 705 mmHg 84%
    04:00 +8°C° 0 mm 1 m/s 705 mmHg 83%
    05:00 +10°C° 0 mm 1 m/s 705 mmHg 78%
    06:00 +12°C° 0 mm 1 m/s 706 mmHg 73%
    07:00 +13°C° 0 mm 1 m/s 706 mmHg 67%
    08:00 +14°C° 0.2 mm 1 m/s 706 mmHg 63%
    09:00 +15°C° 0.2 mm 2 m/s 706 mmHg 60%
    10:00 +16°C° 0.2 mm 2 m/s 706 mmHg 56%
    11:00 +16°C° 1 mm 2 m/s 706 mmHg 58%
    12:00 +16°C° 1 mm 2 m/s 705 mmHg 60%
    13:00 +16°C° 1 mm 2 m/s 705 mmHg 62%
    14:00 +16°C° 1.4 mm 2 m/s 705 mmHg 65%
    15:00 +15°C° 1.4 mm 2 m/s 704 mmHg 68%
    16:00 +14°C° 1.4 mm 1 m/s 704 mmHg 71%
    17:00 +13°C° 1.3 mm 1 m/s 704 mmHg 78%
    18:00 +12°C° 1.3 mm 1 m/s 704 mmHg 84%
    19:00 +11°C° 1.3 mm 1 m/s 704 mmHg 91%
    20:00 +10°C° 1.4 mm 2 m/s 704 mmHg 92%
    21:00 +9°C° 1.4 mm 2 m/s 704 mmHg 92%
    22:00 +8°C° 1.4 mm 2 m/s 705 mmHg 92%
    23:00 +8°C° 0.5 mm 2 m/s 704 mmHg 92%

    Amanhã, 27 Maio, Quarta-feira

    Tempo Temperatura Precipitação Vento Pressão Humidade
    00:00 +8°C° 0.5 mm 2 m/s 704 mmHg 93%
    01:00 +8°C° 0.5 mm 2 m/s 704 mmHg 93%
    02:00 +8°C° 0 mm 2 m/s 704 mmHg 93%
    03:00 +9°C° 0 mm 1 m/s 704 mmHg 92%
    04:00 +9°C° 0 mm 1 m/s 704 mmHg 92%
    05:00 +9°C° 0 mm 2 m/s 705 mmHg 88%
    06:00 +10°C° 0 mm 2 m/s 705 mmHg 84%
    07:00 +12°C° 0 mm 2 m/s 706 mmHg 80%
    08:00 +13°C° 0.4 mm 2 m/s 706 mmHg 77%
    09:00 +13°C° 0.4 mm 3 m/s 706 mmHg 73%
    10:00 +13°C° 0.4 mm 3 m/s 706 mmHg 70%
    11:00 +14°C° 0.8 mm 3 m/s 706 mmHg 68%
    12:00 +16°C° 0.8 mm 2 m/s 706 mmHg 65%
    13:00 +16°C° 0.8 mm 2 m/s 706 mmHg 63%
    14:00 +16°C° 1 mm 1 m/s 706 mmHg 63%
    15:00 +16°C° 1 mm 1 m/s 706 mmHg 63%
    16:00 +16°C° 1 mm 1 m/s 705 mmHg 63%
    17:00 +15°C° 0.8 mm 1 m/s 706 mmHg 69%
    18:00 +13°C° 0.8 mm 1 m/s 706 mmHg 75%
    19:00 +12°C° 0.8 mm 1 m/s 706 mmHg 81%
    20:00 +12°C° 0.3 mm 1 m/s 706 mmHg 82%
    21:00 +11°C° 0.3 mm 1 m/s 706 mmHg 83%
    22:00 +11°C° 0.3 mm 1 m/s 706 mmHg 83%
    23:00 +10°C° 0 mm 1 m/s 706 mmHg 84%

    Depois de amanhã, 28 Maio, Quinta-feira

    Tempo Temperatura Precipitação Vento Pressão Humidade
    00:00 +10°C° 0 mm 1 m/s 706 mmHg 85%
    01:00 +9°C° 0 mm 1 m/s 705 mmHg 86%
    02:00 +9°C° 0 mm 1 m/s 705 mmHg 87%
    03:00 +9°C° 0 mm 1 m/s 705 mmHg 87%
    04:00 +8°C° 0 mm 1 m/s 705 mmHg 88%
    05:00 +10°C° 0 mm 1 m/s 705 mmHg 83%
    06:00 +12°C° 0 mm 2 m/s 705 mmHg 78%
    07:00 +14°C° 0 mm 2 m/s 706 mmHg 73%
    08:00 +15°C° 0 mm 2 m/s 706 mmHg 67%
    09:00 +16°C° 0 mm 2 m/s 706 mmHg 62%
    10:00 +18°C° 0 mm 3 m/s 706 mmHg 57%
    11:00 +18°C° 0.3 mm 3 m/s 706 mmHg 56%
    12:00 +19°C° 0.3 mm 3 m/s 706 mmHg 55%
    13:00 +19°C° 0.3 mm 3 m/s 705 mmHg 54%
    14:00 +19°C° 0.4 mm 3 m/s 705 mmHg 56%
    15:00 +18°C° 0.4 mm 3 m/s 705 mmHg 58%
    16:00 +18°C° 0.4 mm 3 m/s 705 mmHg 59%
    17:00 +17°C° 0.1 mm 2 m/s 705 mmHg 65%
    18:00 +15°C° 0.1 mm 1 m/s 704 mmHg 70%
    19:00 +13°C° 0.1 mm 1 m/s 704 mmHg 75%
    20:00 +13°C° 0.1 mm 1 m/s 704 mmHg 76%
    21:00 +12°C° 0.1 mm 1 m/s 705 mmHg 77%
    22:00 +12°C° 0.1 mm 1 m/s 705 mmHg 78%
    23:00 +11°C° 0 mm 1 m/s 704 mmHg 80%

    29 Maio, Sexta-feira

    Tempo Temperatura Precipitação Vento Pressão Humidade
    00:00 +11°C° 0 mm 1 m/s 704 mmHg 81%
    01:00 +11°C° 0 mm 1 m/s 704 mmHg 82%
    02:00 +10°C° 0 mm 1 m/s 704 mmHg 82%
    03:00 +10°C° 0 mm 1 m/s 704 mmHg 82%
    04:00 +10°C° 0 mm 1 m/s 704 mmHg 83%
    05:00 +12°C° 0 mm 1 m/s 704 mmHg 79%
    06:00 +13°C° 0 mm 1 m/s 704 mmHg 75%
    07:00 +14°C° 0 mm 1 m/s 704 mmHg 71%
    08:00 +15°C° 0.3 mm 1 m/s 705 mmHg 68%
    09:00 +16°C° 0.3 mm 1 m/s 705 mmHg 65%
    10:00 +18°C° 0.3 mm 1 m/s 705 mmHg 62%
    11:00 +18°C° 0.9 mm 1 m/s 704 mmHg 63%
    12:00 +18°C° 0.9 mm 1 m/s 704 mmHg 63%
    13:00 +18°C° 0.9 mm 1 m/s 703 mmHg 64%
    14:00 +18°C° 0.8 mm 1 m/s 703 mmHg 67%
    15:00 +18°C° 0.8 mm 1 m/s 703 mmHg 69%
    16:00 +16°C° 0.8 mm 1 m/s 703 mmHg 72%
    17:00 +15°C° 0.7 mm 1 m/s 703 mmHg 77%
    18:00 +14°C° 0.7 mm 1 m/s 703 mmHg 82%
    19:00 +13°C° 0.7 mm 1 m/s 703 mmHg 88%
    20:00 +12°C° 0.4 mm 1 m/s 703 mmHg 88%
    21:00 +12°C° 0.4 mm 1 m/s 703 mmHg 88%
    22:00 +11°C° 0.4 mm 1 m/s 703 mmHg 88%
    23:00 +11°C° 0.2 mm 1 m/s 703 mmHg 89%

    30 Maio, Sábado

    Tempo Temperatura Precipitação Vento Pressão Humidade
    00:00 +11°C° 0.2 mm 1 m/s 703 mmHg 89%
    01:00 +10°C° 0.2 mm 1 m/s 703 mmHg 89%
    02:00 +10°C° 0 mm 1 m/s 702 mmHg 89%
    03:00 +9°C° 0 mm 1 m/s 702 mmHg 89%
    04:00 +9°C° 0 mm 1 m/s 702 mmHg 90%
    05:00 +10°C° 0.1 mm 1 m/s 703 mmHg 85%
    06:00 +12°C° 0.1 mm 1 m/s 703 mmHg 81%
    07:00 +13°C° 0.1 mm 1 m/s 703 mmHg 76%
    08:00 +14°C° 0.5 mm 2 m/s 703 mmHg 71%
    09:00 +16°C° 0.5 mm 2 m/s 703 mmHg 65%
    10:00 +17°C° 0.5 mm 2 m/s 704 mmHg 59%
    11:00 +18°C° 0.6 mm 2 m/s 704 mmHg 57%
    12:00 +18°C° 0.6 mm 2 m/s 703 mmHg 55%
    13:00 +20°C° 0.6 mm 1 m/s 703 mmHg 54%
    14:00 +19°C° 0.7 mm 1 m/s 703 mmHg 55%
    15:00 +19°C° 0.7 mm 1 m/s 703 mmHg 57%
    16:00 +19°C° 0.7 mm 1 m/s 703 mmHg 59%
    17:00 +16°C° 0.6 mm 1 m/s 703 mmHg 65%
    18:00 +15°C° 0.6 mm 1 m/s 703 mmHg 71%
    19:00 +13°C° 0.6 mm 0 m/s 703 mmHg 76%
    20:00 +13°C° 0.1 mm 1 m/s 703 mmHg 77%
    21:00 +13°C° 0.1 mm 1 m/s 703 mmHg 78%
    22:00 +12°C° 0.1 mm 1 m/s 704 mmHg 79%
    23:00 +12°C° 0 mm 1 m/s 703 mmHg 81%

    31 Maio, Domingo

    Tempo Temperatura Precipitação Vento Pressão Humidade
    00:00 +11°C° 0 mm 1 m/s 703 mmHg 82%
    01:00 +10°C° 0 mm 1 m/s 703 mmHg 83%
    02:00 +10°C° 0 mm 1 m/s 703 mmHg 84%
    03:00 +10°C° 0 mm 1 m/s 703 mmHg 85%
    04:00 +9°C° 0 mm 1 m/s 703 mmHg 86%
    05:00 +11°C° 0 mm 1 m/s 703 mmHg 82%
    06:00 +13°C° 0 mm 1 m/s 704 mmHg 78%
    07:00 +14°C° 0 mm 1 m/s 704 mmHg 74%
    08:00 +15°C° 0.4 mm 1 m/s 704 mmHg 70%
    09:00 +18°C° 0.4 mm 1 m/s 704 mmHg 65%
    10:00 +19°C° 0.4 mm 1 m/s 705 mmHg 61%
    11:00 +20°C° 0.7 mm 1 m/s 704 mmHg 59%
    12:00 +20°C° 0.7 mm 1 m/s 704 mmHg 57%
    13:00 +21°C° 0.7 mm 1 m/s 704 mmHg 55%
    14:00 +21°C° 0.7 mm 1 m/s 704 mmHg 56%
    15:00 +20°C° 0.7 mm 1 m/s 704 mmHg 56%
    16:00 +20°C° 0.7 mm 1 m/s 704 mmHg 57%
    17:00 +19°C° 0.5 mm 1 m/s 704 mmHg 63%
    18:00 +16°C° 0.5 mm 1 m/s 704 mmHg 70%
    19:00 +14°C° 0.5 mm 1 m/s 703 mmHg 76%
    20:00 +14°C° 0.1 mm 1 m/s 704 mmHg 77%
    21:00 +13°C° 0.1 mm 1 m/s 704 mmHg 79%
    22:00 +13°C° 0.1 mm 1 m/s 704 mmHg 80%
    23:00 +12°C° 0 mm 1 m/s 704 mmHg 82%
    Mostrar mais